contact:dominique.lefevre@mio.osupytheas.fr, maurice.libes@osupytheas.fr, didier.mallarino@osupytheas.fr
Project:EMSO http://www.emso-fr.org/EMSO-France
Depth: 2436.0 m
Title:EMSO Ligure Ouest : Data MII capteur AQUADOPP
Date,Latitude,Longitude,X_East,Y_North,Z_Up,Amplitude_X,Amplitude_Y,Amplitude_Z,Batterie,SoundSpeed,Heading,Pitch,Roll,Pressure,TIS,Speed,Direction
, degrees North, degrees East, m.s-1, m.s-1,m.s-1, 1, 1, 1, Volt, m.s-1, degree, degree, degree, dbar, degree_C, m.s-1, degree
2022-01-11T00:04:03,42.805,6.029,0.013,-0.016,0.004,100.0,101.0,100.0,13.4,1505.2,327.8,-0.8,1.9,2469.987,13.28,0.02,140.9
2022-01-11T00:07:03,42.805,6.029,0.021,-0.011,-0.003,101.0,101.0,101.0,13.4,1505.2,325.6,-0.8,1.8,2469.987,13.28,0.023,117.6
2022-01-11T00:10:03,42.805,6.029,0.027,-0.019,-0.004,101.0,101.0,100.0,13.3,1505.2,325.0,-0.7,1.8,2469.94,13.28,0.033,125.1
2022-01-11T00:13:03,42.805,6.029,0.012,-0.013,-0.007,101.0,101.0,100.0,13.4,1505.2,328.8,-0.7,1.8,2469.995,13.28,0.017,137.3
2022-01-11T00:16:03,42.805,6.029,0.005,-0.008,-0.024,101.0,100.0,100.0,13.4,1505.2,328.9,-0.7,1.8,2469.997,13.28,0.009,148.0
2022-01-11T00:19:03,42.805,6.029,0.016,0.0,0.029,101.0,101.0,100.0,13.3,1505.2,328.4,-0.8,1.8,2470.004,13.28,0.016,90.0
2022-01-11T00:22:03,42.805,6.029,0.022,-0.019,-0.006,102.0,101.0,100.0,13.4,1505.2,328.7,-0.8,1.8,2469.97,13.28,0.029,130.8
2022-01-11T00:25:03,42.805,6.029,0.034,-0.035,-0.028,100.0,100.0,100.0,13.4,1505.2,328.8,-0.8,1.8,2470.016,13.28,0.048,135.8
2022-01-11T00:28:03,42.805,6.029,0.023,-0.03,-0.015,101.0,101.0,100.0,13.3,1505.2,326.8,-0.8,1.9,2470.029,13.28,0.037,142.5
2022-01-11T00:31:03,42.805,6.029,0.029,-0.017,-0.031,99.0,101.0,100.0,13.4,1505.2,328.9,-0.8,1.9,2470.034,13.28,0.033,120.4
2022-01-11T00:34:03,42.805,6.029,0.011,-0.022,-0.043,100.0,102.0,100.0,13.3,1505.2,324.4,-0.7,1.8,2470.03,13.28,0.024,153.4
2022-01-11T00:37:03,42.805,6.029,0.013,-0.019,-0.015,101.0,100.0,101.0,13.4,1505.2,327.8,-0.8,1.8,2470.048,13.28,0.023,145.6
2022-01-11T00:40:03,42.805,6.029,-0.003,-0.001,-0.008,100.0,101.0,101.0,13.4,1505.2,329.9,-0.7,1.8,2470.078,13.28,0.003,251.6
2022-01-11T00:43:03,42.805,6.029,-0.001,-0.011,-0.03,101.0,102.0,100.0,13.4,1505.2,327.7,-0.7,1.8,2470.054,13.28,0.011,185.2
2022-01-11T00:46:03,42.805,6.029,0.002,-0.026,-0.018,100.0,101.0,101.0,13.3,1505.2,328.7,-0.8,1.8,2470.063,13.28,0.026,175.6
2022-01-11T00:49:03,42.805,6.029,0.008,-0.029,0.013,101.0,100.0,100.0,13.3,1505.2,328.8,-0.8,1.8,2470.054,13.28,0.03,164.6
2022-01-11T00:52:03,42.805,6.029,0.046,-0.061,-0.008,101.0,102.0,100.0,13.4,1505.2,329.4,-0.7,1.9,2470.073,13.28,0.076,143.0
2022-01-11T00:55:03,42.805,6.029,0.026,-0.011,0.015,100.0,99.0,101.0,13.4,1505.2,328.1,-0.8,1.8,2470.091,13.28,0.028,112.9
2022-01-11T00:58:03,42.805,6.029,0.007,0.0,0.014,100.0,101.0,100.0,13.3,1505.2,324.2,-0.8,1.8,2470.088,13.28,0.007,90.0
2022-01-11T01:04:03,42.805,6.029,0.001,0.004,0.001,102.0,101.0,101.0,13.4,1505.2,332.0,-0.7,1.8,2470.087,13.28,0.004,14.0
2022-01-11T01:07:03,42.805,6.029,-0.002,-0.024,-0.056,101.0,103.0,101.0,13.4,1505.2,325.3,-0.7,1.8,2470.123,13.28,0.024,184.8
2022-01-11T01:10:03,42.805,6.029,0.025,-0.024,-0.023,101.0,100.0,100.0,13.4,1505.2,324.6,-0.7,1.8,2470.152,13.28,0.034,133.8
2022-01-11T01:13:03,42.805,6.029,0.007,-0.014,0.004,100.0,101.0,100.0,13.4,1505.2,325.8,-0.7,1.8,2470.157,13.28,0.015,153.4
2022-01-11T01:16:03,42.805,6.029,0.005,-0.004,-0.013,101.0,101.0,100.0,13.4,1505.2,323.4,-0.8,1.8,2470.146,13.28,0.006,128.7
2022-01-11T01:19:03,42.805,6.029,0.0,-0.033,-0.01,101.0,101.0,101.0,13.4,1505.2,324.5,-0.8,1.8,2470.177,13.28,0.033,180.0
2022-01-11T01:22:03,42.805,6.029,0.038,-0.012,-0.009,101.0,101.0,100.0,13.4,1505.2,323.7,-0.8,1.8,2470.147,13.28,0.039,107.5
2022-01-11T01:25:03,42.805,6.029,0.006,-0.027,-0.031,100.0,102.0,99.0,13.4,1505.2,325.3,-0.7,1.8,2470.171,13.28,0.027,167.5
2022-01-11T01:28:03,42.805,6.029,0.008,-0.006,0.009,101.0,101.0,100.0,13.3,1505.2,328.5,-0.8,1.8,2470.185,13.28,0.01,126.9
2022-01-11T01:31:03,42.805,6.029,0.017,-0.02,-0.019,101.0,100.0,100.0,13.4,1505.2,325.5,-0.7,1.8,2470.16,13.28,0.026,139.6
2022-01-11T01:34:03,42.805,6.029,0.008,-0.006,-0.033,100.0,101.0,101.0,13.4,1505.2,330.5,-0.8,1.8,2470.222,13.28,0.01,126.9
2022-01-11T01:37:03,42.805,6.029,0.013,-0.021,0.002,101.0,101.0,100.0,13.4,1505.2,330.5,-0.8,1.8,2470.24,13.28,0.024,148.2
2022-01-11T01:40:03,42.805,6.029,0.025,-0.024,-0.005,101.0,100.0,101.0,13.3,1505.2,331.8,-0.7,1.8,2470.254,13.28,0.034,133.8
2022-01-11T01:43:03,42.805,6.029,0.014,-0.016,-0.037,101.0,101.0,100.0,13.4,1505.2,331.3,-0.8,1.9,2470.302,13.28,0.021,138.8
2022-01-11T01:46:03,42.805,6.029,-0.003,-0.031,-0.048,102.0,100.0,100.0,13.3,1505.2,331.8,-0.7,1.8,2470.289,13.28,0.031,185.5
2022-01-11T01:49:03,42.805,6.029,0.031,-0.001,-0.024,101.0,100.0,100.0,13.4,1505.2,328.8,-0.7,1.8,2470.321,13.28,0.031,91.8
2022-01-11T01:52:03,42.805,6.029,0.01,-0.001,-0.013,101.0,101.0,100.0,13.4,1505.2,325.9,-0.8,1.8,2470.362,13.28,0.01,95.7
2022-01-11T01:55:03,42.805,6.029,0.002,-0.006,-0.022,100.0,101.0,100.0,13.3,1505.2,330.6,-0.8,1.8,2470.341,13.28,0.006,161.6
2022-01-11T01:58:03,42.805,6.029,0.005,-0.006,0.012,101.0,102.0,99.0,13.4,1505.2,330.7,-0.7,1.8,2470.36,13.28,0.007,140.2
2022-01-11T02:04:03,42.805,6.029,0.018,-0.011,-0.016,101.0,100.0,100.0,13.3,1505.2,329.2,-0.7,1.8,2470.474,13.28,0.021,121.4
2022-01-11T02:07:03,42.805,6.029,0.0,-0.02,-0.013,101.0,101.0,101.0,13.4,1505.2,326.8,-0.7,1.8,2470.478,13.28,0.02,180.0
2022-01-11T02:10:03,42.805,6.029,0.038,-0.015,0.018,99.0,101.0,100.0,13.4,1505.2,326.2,-0.7,1.8,2470.499,13.28,0.04,111.5
2022-01-11T02:13:03,42.805,6.029,0.027,-0.026,-0.028,101.0,100.0,100.0,13.4,1505.2,328.3,-0.8,1.8,2470.499,13.28,0.037,133.9
2022-01-11T02:16:03,42.805,6.029,0.019,-0.019,0.007,100.0,100.0,100.0,13.4,1505.2,327.4,-0.8,1.8,2470.526,13.28,0.026,135.0
2022-01-11T02:19:03,42.805,6.029,0.014,-0.024,-0.01,101.0,101.0,101.0,13.4,1505.2,327.2,-0.8,1.8,2470.529,13.28,0.027,149.7
2022-01-11T02:22:03,42.805,6.029,-0.013,0.001,0.007,100.0,100.0,100.0,13.3,1505.2,329.2,-0.7,1.8,2470.577,13.28,0.013,274.4
2022-01-11T02:25:03,42.805,6.029,-0.006,0.002,-0.025,101.0,101.0,100.0,13.4,1505.2,327.8,-0.8,1.8,2470.574,13.28,0.006,288.4
2022-01-11T02:28:03,42.805,6.029,0.01,-0.025,0.004,100.0,101.0,100.0,13.4,1505.2,324.4,-0.7,1.8,2470.593,13.28,0.026,158.2
2022-01-11T02:31:03,42.805,6.029,0.016,-0.017,-0.023,101.0,100.0,100.0,13.4,1505.2,329.4,-0.8,1.8,2470.623,13.28,0.023,136.7
2022-01-11T02:34:03,42.805,6.029,0.008,-0.024,-0.039,101.0,100.0,100.0,13.3,1505.2,325.6,-0.8,1.8,2470.601,13.28,0.025,161.6
2022-01-11T02:37:03,42.805,6.029,0.006,-0.014,-0.018,102.0,101.0,99.0,13.4,1505.2,329.3,-0.8,1.8,2470.645,13.28,0.015,156.8
2022-01-11T02:40:03,42.805,6.029,-0.003,-0.017,-0.02,101.0,100.0,100.0,13.3,1505.2,325.9,-0.8,1.8,2470.647,13.28,0.017,190.0
2022-01-11T02:43:03,42.805,6.029,0.004,-0.016,-0.026,98.0,102.0,100.0,13.4,1505.2,331.5,-0.8,1.8,2470.695,13.28,0.016,166.0
2022-01-11T02:46:03,42.805,6.029,-0.002,-0.029,-0.043,100.0,100.0,100.0,13.4,1505.2,331.5,-0.8,1.8,2470.667,13.29,0.029,183.9
2022-01-11T02:49:03,42.805,6.029,0.003,-0.026,-0.038,99.0,103.0,99.0,13.3,1505.2,331.3,-0.8,1.8,2470.71,13.28,0.026,173.4
2022-01-11T02:52:03,42.805,6.029,0.008,0.004,-0.008,100.0,100.0,100.0,13.4,1505.2,327.2,-0.8,1.8,2470.665,13.28,0.008,63.4
2022-01-11T02:55:03,42.805,6.029,-0.004,-0.013,-0.009,100.0,100.0,99.0,13.4,1505.2,329.9,-0.8,1.8,2470.691,13.28,0.013,197.1
2022-01-11T02:58:03,42.805,6.029,0.007,-0.005,0.0,99.0,101.0,100.0,13.4,1505.2,331.3,-0.8,1.9,2470.684,13.28,0.008,125.5
2022-01-11T03:04:03,42.805,6.029,0.017,-0.012,-0.02,100.0,100.0,100.0,13.4,1505.2,325.3,-0.8,1.8,2470.746,13.28,0.02,125.2
2022-01-11T03:07:03,42.805,6.029,-0.004,-0.014,-0.017,102.0,100.0,99.0,13.4,1505.2,324.9,-0.8,1.8,2470.68,13.28,0.014,195.9
2022-01-11T03:10:03,42.805,6.029,0.006,-0.027,-0.01,101.0,99.0,100.0,13.3,1505.2,327.0,-0.7,1.8,2470.67,13.28,0.027,167.5
2022-01-11T03:13:03,42.805,6.029,0.02,-0.035,-0.044,100.0,99.0,101.0,13.3,1505.2,327.2,-0.8,1.8,2470.669,13.28,0.04,150.3
2022-01-11T03:16:03,42.805,6.029,-0.016,0.004,-0.008,102.0,100.0,100.0,13.3,1505.2,327.7,-0.8,1.8,2470.709,13.28,0.016,284.0
2022-01-11T03:19:03,42.805,6.029,-0.009,0.002,0.006,101.0,101.0,100.0,13.4,1505.2,328.9,-0.7,1.8,2470.653,13.28,0.009,282.5
2022-01-11T03:22:03,42.805,6.029,0.007,0.003,0.004,100.0,101.0,100.0,13.4,1505.2,325.6,-0.8,1.8,2470.673,13.28,0.007,66.8
2022-01-11T03:25:03,42.805,6.029,0.006,0.001,-0.017,100.0,100.0,100.0,13.3,1505.2,324.7,-0.7,1.8,2470.697,13.28,0.006,80.5
2022-01-11T03:28:03,42.805,6.029,0.014,-0.009,-0.007,100.0,101.0,99.0,13.4,1505.2,326.8,-0.8,1.9,2470.663,13.28,0.016,122.7
2022-01-11T03:31:03,42.805,6.029,0.005,0.001,0.019,101.0,100.0,100.0,13.3,1505.2,326.1,-0.7,1.8,2470.666,13.28,0.005,78.7
2022-01-11T03:34:03,42.805,6.029,0.036,-0.019,-0.034,100.0,98.0,100.0,13.3,1505.2,328.3,-0.7,1.8,2470.706,13.28,0.04,117.8
2022-01-11T03:37:03,42.805,6.029,0.011,0.0,-0.036,100.0,98.0,101.0,13.3,1505.2,324.8,-0.7,1.8,2470.699,13.28,0.011,90.0
2022-01-11T03:40:03,42.805,6.029,0.031,-0.018,-0.013,100.0,101.0,99.0,13.4,1505.2,325.8,-0.8,1.8,2470.71,13.28,0.035,120.1
2022-01-11T03:43:03,42.805,6.029,0.004,-0.012,-0.042,101.0,101.0,100.0,13.3,1505.2,326.5,-0.8,1.8,2470.729,13.28,0.012,161.6
2022-01-11T03:46:03,42.805,6.029,0.014,-0.005,-0.01,99.0,101.0,100.0,13.3,1505.2,325.5,-0.8,1.8,2470.708,13.28,0.014,109.6
2022-01-11T03:49:03,42.805,6.029,0.001,-0.003,-0.028,102.0,101.0,99.0,13.4,1505.2,326.7,-0.7,1.8,2470.752,13.28,0.003,161.6
2022-01-11T03:52:03,42.805,6.029,0.033,-0.01,-0.011,100.0,99.0,100.0,13.4,1505.2,329.1,-0.8,1.8,2470.707,13.28,0.034,106.9
2022-01-11T03:55:03,42.805,6.029,0.013,-0.012,0.014,100.0,100.0,100.0,13.4,1505.2,328.8,-0.7,1.8,2470.747,13.28,0.017,132.7
2022-01-11T03:58:03,42.805,6.029,0.022,-0.013,-0.023,101.0,100.0,100.0,13.4,1505.2,326.8,-0.7,1.8,2470.721,13.28,0.025,120.6
2022-01-11T04:04:03,42.805,6.029,0.014,-0.009,-0.015,101.0,101.0,100.0,13.4,1505.2,324.5,-0.8,1.8,2470.741,13.28,0.016,122.7
2022-01-11T04:07:03,42.805,6.029,0.008,-0.018,-0.013,99.0,101.0,99.0,13.3,1505.2,327.8,-0.8,1.8,2470.741,13.28,0.019,156.0
2022-01-11T04:10:03,42.805,6.029,0.024,-0.031,0.006,101.0,99.0,101.0,13.4,1505.2,323.6,-0.7,1.8,2470.724,13.28,0.039,142.3
2022-01-11T04:13:03,42.805,6.029,0.008,-0.009,-0.025,101.0,98.0,101.0,13.4,1505.2,328.9,-0.8,1.8,2470.713,13.28,0.012,138.4
2022-01-11T04:16:03,42.805,6.029,0.011,-0.006,-0.026,102.0,99.0,100.0,13.4,1505.2,330.9,-0.8,1.9,2470.69,13.28,0.012,118.6
2022-01-11T04:19:03,42.805,6.029,0.015,-0.012,-0.012,103.0,101.0,99.0,13.3,1505.2,326.0,-0.7,1.8,2470.673,13.28,0.019,128.7
2022-01-11T04:22:03,42.805,6.029,0.0,0.016,0.026,101.0,102.0,103.0,13.4,1505.2,328.5,-0.7,1.8,2470.741,13.28,0.016,0.0
2022-01-11T04:25:03,42.805,6.029,0.021,0.0,-0.03,102.0,99.0,101.0,13.4,1505.2,326.8,-0.8,1.8,2470.694,13.28,0.021,90.0
2022-01-11T04:28:03,42.805,6.029,0.018,-0.012,0.001,102.0,100.0,99.0,13.4,1505.2,330.6,-0.8,1.8,2470.71,13.28,0.021,123.7
2022-01-11T04:31:03,42.805,6.029,0.017,-0.021,-0.026,101.0,100.0,100.0,13.4,1505.2,327.2,-0.8,1.8,2470.699,13.28,0.027,141.0
2022-01-11T04:34:03,42.805,6.029,0.015,-0.013,-0.025,101.0,101.0,100.0,13.4,1505.2,326.0,-0.7,1.8,2470.693,13.28,0.019,130.9
2022-01-11T04:37:03,42.805,6.029,0.017,-0.028,-0.005,101.0,101.0,101.0,13.3,1505.2,326.2,-0.8,1.8,2470.675,13.28,0.032,148.7
2022-01-11T04:40:03,42.805,6.029,0.017,-0.002,0.007,102.0,100.0,101.0,13.4,1505.2,326.3,-0.7,1.8,2470.714,13.28,0.017,96.7
2022-01-11T04:43:03,42.805,6.029,-0.002,0.019,0.0,100.0,102.0,101.0,13.4,1505.2,329.3,-0.7,1.8,2470.692,13.28,0.019,354.0
2022-01-11T04:46:03,42.805,6.029,0.0,-0.018,-0.022,103.0,100.0,100.0,13.4,1505.2,327.5,-0.7,1.8,2470.714,13.28,0.018,180.0
2022-01-11T04:49:03,42.805,6.029,0.006,-0.01,-0.006,103.0,102.0,99.0,13.4,1505.2,327.6,-0.8,1.8,2470.729,13.28,0.011,149.0
2022-01-11T04:52:03,42.805,6.029,0.003,-0.003,-0.021,102.0,100.0,100.0,13.4,1505.2,326.5,-0.8,1.8,2470.741,13.28,0.004,135.0
2022-01-11T04:55:03,42.805,6.029,0.017,-0.019,-0.036,101.0,101.0,100.0,13.4,1505.2,330.4,-0.8,1.8,2470.749,13.28,0.025,138.2
2022-01-11T04:58:03,42.805,6.029,0.0,-0.012,-0.023,101.0,102.0,101.0,13.4,1505.2,329.2,-0.7,1.9,2470.726,13.28,0.012,180.0
2022-01-11T05:04:03,42.805,6.029,0.005,-0.014,-0.013,100.0,102.0,100.0,13.4,1505.2,327.3,-0.8,1.8,2470.86,13.28,0.014,160.4
2022-01-11T05:07:03,42.805,6.029,0.005,-0.005,-0.038,101.0,101.0,100.0,13.3,1505.2,328.2,-0.8,1.8,2470.806,13.28,0.007,135.0
2022-01-11T05:10:03,42.805,6.029,-0.006,0.0,-0.025,100.0,101.0,100.0,13.4,1505.2,328.9,-0.8,1.8,2470.824,13.28,0.006,270.0
2022-01-11T05:13:03,42.805,6.029,0.008,0.008,0.023,100.0,102.0,100.0,13.4,1505.2,328.9,-0.8,1.8,2470.772,13.28,0.011,45.0
2022-01-11T05:16:03,42.805,6.029,0.02,-0.008,-0.007,100.0,100.0,100.0,13.3,1505.2,325.2,-0.8,1.8,2470.792,13.28,0.021,111.8
2022-01-11T05:19:03,42.805,6.029,0.022,-0.01,-0.009,100.0,101.0,100.0,13.4,1505.2,327.9,-0.8,1.8,2470.792,13.28,0.024,114.4
2022-01-11T05:22:03,42.805,6.029,0.011,0.0,0.006,101.0,100.0,100.0,13.4,1505.2,327.3,-0.7,1.8,2470.755,13.28,0.011,90.0
2022-01-11T05:25:03,42.805,6.029,0.02,-0.026,-0.006,101.0,101.0,99.0,13.4,1505.2,327.0,-0.8,1.8,2470.796,13.28,0.032,142.4
2022-01-11T05:28:03,42.805,6.029,0.02,-0.028,-0.031,101.0,102.0,100.0,13.3,1505.2,329.9,-0.8,1.8,2470.807,13.28,0.034,144.5
2022-01-11T05:31:03,42.805,6.029,0.022,-0.03,-0.03,100.0,101.0,100.0,13.4,1505.2,329.8,-0.8,1.8,2470.765,13.28,0.037,143.7
2022-01-11T05:34:03,42.805,6.029,0.023,-0.025,-0.03,101.0,100.0,101.0,13.4,1505.2,329.0,-0.7,1.8,2470.797,13.28,0.033,137.4
2022-01-11T05:37:03,42.805,6.029,0.0,0.006,0.004,101.0,101.0,100.0,13.4,1505.2,327.8,-0.8,1.8,2470.754,13.28,0.006,0.0
2022-01-11T05:40:03,42.805,6.029,-0.001,-0.02,-0.01,100.0,101.0,100.0,13.4,1505.2,327.6,-0.7,1.8,2470.779,13.28,0.02,182.9
2022-01-11T05:43:03,42.805,6.029,0.0,-0.008,-0.012,100.0,101.0,100.0,13.4,1505.2,330.8,-0.7,1.8,2470.79,13.28,0.008,180.0
2022-01-11T05:46:03,42.805,6.029,0.03,-0.019,0.0,101.0,102.0,100.0,13.4,1505.2,328.4,-0.8,1.8,2470.769,13.28,0.035,122.3
2022-01-11T05:49:03,42.805,6.029,-0.004,0.003,-0.005,100.0,101.0,100.0,13.4,1505.2,324.2,-0.7,1.8,2470.788,13.28,0.005,306.9
2022-01-11T05:52:03,42.805,6.029,0.021,-0.016,-0.015,101.0,101.0,100.0,13.3,1505.2,329.9,-0.7,1.8,2470.772,13.28,0.026,127.3
2022-01-11T05:55:03,42.805,6.029,0.005,-0.014,-0.024,102.0,99.0,102.0,13.4,1505.2,324.4,-0.8,1.8,2470.777,13.28,0.014,160.4
2022-01-11T05:58:03,42.805,6.029,-0.003,0.011,0.0,101.0,100.0,101.0,13.4,1505.2,323.9,-0.8,1.8,2470.764,13.28,0.011,344.7
2022-01-11T06:04:03,42.805,6.029,0.004,0.003,0.006,101.0,101.0,101.0,13.3,1505.2,326.1,-0.7,1.8,2470.874,13.28,0.005,53.1
2022-01-11T06:07:03,42.805,6.029,0.007,-0.011,0.032,101.0,101.0,100.0,13.3,1505.2,327.2,-0.8,1.8,2470.825,13.28,0.013,147.5
2022-01-11T06:10:03,42.805,6.029,0.021,-0.029,0.001,101.0,100.0,100.0,13.4,1505.2,331.5,-0.7,1.8,2470.808,13.28,0.035,144.1
2022-01-11T06:13:03,42.805,6.029,0.018,-0.019,-0.036,101.0,100.0,100.0,13.4,1505.2,324.0,-0.8,1.8,2470.772,13.28,0.026,136.5
2022-01-11T06:16:03,42.805,6.029,0.014,-0.015,0.019,101.0,101.0,100.0,13.4,1505.2,329.9,-0.8,1.8,2470.771,13.28,0.02,137.0
2022-01-11T06:19:03,42.805,6.029,-0.021,-0.018,-0.024,100.0,101.0,101.0,13.4,1505.2,326.6,-0.8,1.8,2470.772,13.28,0.027,229.4
2022-01-11T06:22:03,42.805,6.029,0.018,-0.005,-0.017,102.0,100.0,101.0,13.3,1505.2,329.2,-0.7,1.9,2470.766,13.28,0.018,105.5
2022-01-11T06:25:03,42.805,6.029,0.014,-0.027,-0.017,100.0,101.0,100.0,13.4,1505.2,330.5,-0.8,1.8,2470.808,13.28,0.03,152.6
2022-01-11T06:28:03,42.805,6.029,0.007,-0.01,0.007,100.0,102.0,100.0,13.4,1505.2,326.8,-0.8,1.8,2470.807,13.28,0.012,145.0
2022-01-11T06:31:03,42.805,6.029,0.025,-0.006,0.006,101.0,101.0,101.0,13.4,1505.2,327.8,-0.8,1.8,2470.781,13.28,0.025,103.5
2022-01-11T06:34:03,42.805,6.029,0.005,-0.013,-0.011,101.0,101.0,100.0,13.4,1505.2,329.0,-0.7,1.8,2470.741,13.28,0.013,159.0
2022-01-11T06:37:03,42.805,6.029,0.009,-0.023,-0.012,101.0,102.0,100.0,13.3,1505.2,328.0,-0.8,1.8,2470.776,13.28,0.024,158.6
2022-01-11T06:40:03,42.805,6.029,0.012,-0.013,-0.025,101.0,101.0,100.0,13.4,1505.2,326.5,-0.7,1.8,2470.808,13.28,0.017,137.3
2022-01-11T06:43:03,42.805,6.029,-0.011,-0.016,-0.037,102.0,105.0,100.0,13.4,1505.2,328.3,-0.7,1.8,2470.776,13.28,0.019,214.5
2022-01-11T06:46:03,42.805,6.029,0.021,-0.005,0.002,101.0,101.0,100.0,13.3,1505.2,329.5,-0.8,1.8,2470.804,13.28,0.021,103.4
2022-01-11T06:49:03,42.805,6.029,0.039,-0.008,0.021,101.0,100.0,100.0,13.4,1505.2,326.3,-0.8,1.8,2470.814,13.28,0.039,101.6
2022-01-11T06:52:03,42.805,6.029,0.027,0.0,-0.006,101.0,101.0,101.0,13.4,1505.2,326.7,-0.7,1.8,2470.819,13.28,0.026,90.0
2022-01-11T06:55:03,42.805,6.029,0.006,-0.013,0.002,101.0,100.0,101.0,13.3,1505.2,326.7,-0.7,1.9,2470.788,13.28,0.014,155.2
2022-01-11T06:58:03,42.805,6.029,0.018,-0.002,0.015,100.0,101.0,101.0,13.4,1505.2,329.3,-0.7,1.8,2470.785,13.28,0.018,96.3
2022-01-11T07:04:03,42.805,6.029,0.035,-0.008,0.017,100.0,101.0,100.0,13.4,1505.2,328.2,-0.8,1.8,2470.837,13.28,0.035,102.9
2022-01-11T07:07:03,42.805,6.029,0.026,-0.022,-0.025,100.0,100.0,100.0,13.4,1505.2,331.2,-0.8,1.8,2470.786,13.28,0.034,130.2
2022-01-11T07:10:03,42.805,6.029,0.022,-0.024,-0.002,100.0,99.0,101.0,13.4,1505.2,329.2,-0.7,1.8,2470.781,13.28,0.032,137.5
2022-01-11T07:13:03,42.805,6.029,0.004,0.0,0.009,99.0,101.0,101.0,13.4,1505.2,324.6,-0.7,1.8,2470.782,13.28,0.004,90.0
2022-01-11T07:16:03,42.805,6.029,0.018,-0.019,-0.012,101.0,101.0,102.0,13.4,1505.2,325.0,-0.8,1.8,2470.792,13.28,0.026,136.5
2022-01-11T07:19:03,42.805,6.029,-0.001,-0.03,-0.017,102.0,101.0,101.0,13.4,1505.2,325.0,-0.7,1.8,2470.787,13.28,0.03,181.9
2022-01-11T07:22:03,42.805,6.029,0.045,-0.021,0.008,101.0,100.0,101.0,13.3,1505.2,323.5,-0.8,1.8,2470.792,13.28,0.049,115.0
2022-01-11T07:25:03,42.805,6.029,0.015,-0.024,-0.003,100.0,101.0,100.0,13.4,1505.2,327.4,-0.8,1.8,2470.792,13.28,0.028,148.0
2022-01-11T07:28:03,42.805,6.029,0.009,0.016,0.012,100.0,101.0,101.0,13.4,1505.2,325.5,-0.7,1.8,2470.764,13.28,0.018,29.4
2022-01-11T07:31:03,42.805,6.029,-0.009,-0.007,0.013,100.0,101.0,100.0,13.4,1505.2,328.9,-0.8,1.8,2470.764,13.28,0.011,232.1
2022-01-11T07:34:03,42.805,6.029,0.017,-0.012,-0.004,100.0,101.0,100.0,13.4,1505.2,329.6,-0.8,1.9,2470.752,13.28,0.02,125.2
2022-01-11T07:37:03,42.805,6.029,0.046,-0.014,-0.007,100.0,101.0,101.0,13.3,1505.2,323.6,-0.8,1.8,2470.814,13.28,0.048,106.9
2022-01-11T07:40:03,42.805,6.029,0.018,-0.011,0.0,100.0,101.0,100.0,13.4,1505.2,325.5,-0.8,1.8,2470.815,13.28,0.021,121.4
2022-01-11T07:43:03,42.805,6.029,0.026,-0.016,0.018,100.0,102.0,99.0,13.4,1505.2,331.9,-0.8,1.8,2470.813,13.28,0.03,121.6
2022-01-11T07:46:03,42.805,6.029,0.036,-0.025,-0.021,101.0,101.0,101.0,13.4,1505.2,327.0,-0.8,1.8,2470.822,13.28,0.043,124.8
2022-01-11T07:49:03,42.805,6.029,0.01,-0.007,-0.007,101.0,100.0,100.0,13.3,1505.2,329.5,-0.7,1.8,2470.769,13.28,0.012,125.0
2022-01-11T07:52:03,42.805,6.029,0.027,-0.001,0.01,101.0,101.0,101.0,13.3,1505.2,327.3,-0.8,1.9,2470.788,13.28,0.027,92.1
2022-01-11T07:55:03,42.805,6.029,0.013,-0.021,-0.014,101.0,101.0,100.0,13.3,1505.2,330.5,-0.8,1.8,2470.779,13.28,0.024,148.2
2022-01-11T07:58:03,42.805,6.029,0.024,0.005,0.009,100.0,102.0,101.0,13.4,1505.2,329.0,-0.8,1.8,2470.781,13.28,0.024,78.2
2022-01-11T08:04:03,42.805,6.029,0.002,-0.002,-0.022,101.0,101.0,101.0,13.4,1505.2,331.5,-0.8,1.8,2470.872,13.28,0.002,135.0
2022-01-11T08:07:03,42.805,6.029,0.019,-0.032,0.002,100.0,101.0,100.0,13.4,1505.2,325.3,-0.8,1.8,2470.808,13.28,0.037,149.3
2022-01-11T08:10:03,42.805,6.029,0.014,-0.016,0.009,100.0,102.0,100.0,13.4,1505.2,327.7,-0.8,1.8,2470.788,13.28,0.021,138.8
2022-01-11T08:13:03,42.805,6.029,0.034,-0.014,-0.001,102.0,100.0,100.0,13.4,1505.2,329.1,-0.7,1.8,2470.795,13.28,0.036,112.4
2022-01-11T08:16:03,42.805,6.029,0.014,-0.004,0.012,101.0,101.0,100.0,13.4,1505.2,323.9,-0.7,1.8,2470.777,13.28,0.014,105.9
2022-01-11T08:19:03,42.805,6.029,0.04,-0.018,0.033,101.0,102.0,100.0,13.4,1505.2,327.8,-0.8,1.8,2470.747,13.28,0.043,114.2
2022-01-11T08:22:03,42.805,6.029,0.004,0.003,0.017,101.0,101.0,100.0,13.3,1505.2,326.7,-0.7,1.8,2470.749,13.28,0.005,53.1
2022-01-11T08:25:03,42.805,6.029,0.027,-0.02,-0.012,100.0,101.0,100.0,13.3,1505.2,326.6,-0.8,1.8,2470.736,13.28,0.033,126.5
2022-01-11T08:28:03,42.805,6.029,0.006,-0.021,-0.017,101.0,101.0,100.0,13.4,1505.2,326.3,-0.7,1.8,2470.74,13.28,0.021,164.1
2022-01-11T08:31:03,42.805,6.029,0.022,-0.008,0.012,100.0,99.0,101.0,13.4,1505.2,326.7,-0.7,1.8,2470.76,13.28,0.023,110.0
2022-01-11T08:34:03,42.805,6.029,0.035,-0.024,0.006,99.0,102.0,99.0,13.4,1505.2,330.4,-0.8,1.8,2470.738,13.28,0.042,124.4
2022-01-11T08:37:03,42.805,6.029,0.025,0.004,0.043,101.0,100.0,101.0,13.4,1505.2,326.2,-0.7,1.8,2470.749,13.28,0.025,80.9
2022-01-11T08:40:03,42.805,6.029,0.012,-0.008,-0.003,100.0,101.0,100.0,13.4,1505.2,326.5,-0.8,1.8,2470.76,13.28,0.014,123.7
2022-01-11T08:43:03,42.805,6.029,0.014,0.008,0.019,100.0,101.0,101.0,13.4,1505.2,326.5,-0.8,1.8,2470.766,13.28,0.016,60.3
2022-01-11T08:46:03,42.805,6.029,0.01,-0.014,0.009,100.0,102.0,100.0,13.3,1505.2,326.7,-0.8,1.8,2470.768,13.28,0.017,144.5
2022-01-11T08:49:03,42.805,6.029,0.03,-0.008,0.029,101.0,101.0,100.0,13.4,1505.2,326.1,-0.7,1.8,2470.741,13.28,0.031,104.9
2022-01-11T08:52:03,42.805,6.029,0.021,-0.019,0.016,100.0,101.0,100.0,13.3,1505.2,328.0,-0.7,1.8,2470.773,13.28,0.028,132.1
2022-01-11T08:55:03,42.805,6.029,0.043,-0.037,-0.015,100.0,101.0,100.0,13.4,1505.2,326.0,-0.7,1.8,2470.782,13.28,0.056,130.7
2022-01-11T08:58:03,42.805,6.029,0.053,-0.019,-0.004,101.0,102.0,100.0,13.4,1505.2,327.9,-0.7,1.8,2470.773,13.28,0.056,109.7
2022-01-11T09:04:03,42.805,6.029,0.047,-0.034,-0.012,101.0,102.0,100.0,13.4,1505.2,326.3,-0.8,1.8,2470.818,13.28,0.058,125.9
2022-01-11T09:07:03,42.805,6.029,0.032,-0.023,0.01,101.0,102.0,100.0,13.3,1505.2,330.9,-0.7,1.8,2470.835,13.28,0.039,125.7
2022-01-11T09:10:03,42.805,6.029,0.012,-0.01,0.007,100.0,101.0,101.0,13.4,1505.2,326.5,-0.7,1.8,2470.752,13.28,0.015,129.8
2022-01-11T09:13:03,42.805,6.029,0.022,0.0,0.016,100.0,103.0,100.0,13.4,1505.2,324.3,-0.8,1.8,2470.77,13.28,0.022,90.0
2022-01-11T09:16:03,42.805,6.029,0.03,0.0,0.027,102.0,100.0,100.0,13.3,1505.2,329.8,-0.8,1.8,2470.78,13.28,0.03,90.0
2022-01-11T09:19:03,42.805,6.029,0.047,-0.02,0.016,101.0,101.0,100.0,13.3,1505.2,326.3,-0.7,1.8,2470.777,13.28,0.051,113.0
2022-01-11T09:22:03,42.805,6.029,0.038,-0.015,0.011,100.0,101.0,100.0,13.3,1505.2,324.0,-0.8,1.8,2470.745,13.28,0.04,111.5
2022-01-11T09:25:03,42.805,6.029,0.017,-0.013,0.021,101.0,102.0,99.0,13.4,1505.2,327.3,-0.7,1.8,2470.784,13.28,0.021,127.4
2022-01-11T09:28:03,42.805,6.029,0.02,-0.003,0.035,101.0,102.0,100.0,13.4,1505.2,325.2,-0.8,1.8,2470.768,13.28,0.02,98.5
2022-01-11T09:31:03,42.805,6.029,0.005,-0.003,0.007,101.0,101.0,101.0,13.4,1505.2,325.9,-0.8,1.9,2470.771,13.28,0.005,121.0
2022-01-11T09:34:03,42.805,6.029,0.025,-0.017,-0.021,99.0,102.0,101.0,13.4,1505.2,330.8,-0.8,1.8,2470.774,13.28,0.03,124.2
2022-01-11T09:37:03,42.805,6.029,0.005,-0.013,-0.01,101.0,100.0,100.0,13.3,1505.2,325.8,-0.8,1.8,2470.719,13.28,0.013,159.0
2022-01-11T09:40:03,42.805,6.029,0.003,0.008,0.026,100.0,102.0,100.0,13.4,1505.2,331.4,-0.8,1.8,2470.79,13.28,0.008,20.6
2022-01-11T09:43:03,42.805,6.029,0.015,-0.036,-0.005,100.0,102.0,100.0,13.4,1505.2,328.4,-0.8,1.8,2470.75,13.28,0.039,157.4
2022-01-11T09:46:03,42.805,6.029,0.012,-0.004,-0.013,100.0,102.0,100.0,13.3,1505.2,327.2,-0.7,1.8,2470.818,13.28,0.012,108.4
2022-01-11T09:49:03,42.805,6.029,0.008,0.009,0.037,100.0,101.0,100.0,13.3,1505.2,327.0,-0.8,1.8,2470.756,13.28,0.012,41.6
2022-01-11T09:52:03,42.805,6.029,0.028,-0.017,0.017,101.0,102.0,100.0,13.4,1505.2,329.7,-0.8,1.8,2470.823,13.28,0.032,121.3
2022-01-11T09:55:03,42.805,6.029,0.03,-0.002,0.025,100.0,102.0,100.0,13.3,1505.2,328.6,-0.8,1.9,2470.795,13.28,0.03,93.8
2022-01-11T09:58:03,42.805,6.029,0.022,-0.017,0.016,101.0,102.0,101.0,13.4,1505.2,328.4,-0.8,1.8,2470.773,13.28,0.027,127.7